Stations météo

réclame
Mon MeteoGroup
Dunkerque, France (7010): Température de l'air & dewpoint: 11.01.2018 02:00:00 - 17.01.2018 02:00:00 (CET)Dunkerque, France (7010): Vitesse du vent & gusts: 11.01.2018 02:00:00 - 17.01.2018 02:00:00 (CET)Dunkerque, France (7010): Direction du vent: 11.01.2018 02:00:00 - 17.01.2018 02:00:00 (CET)Dunkerque, France (7010): reduced air pressure: 11.01.2018 02:00:00 - 17.01.2018 02:00:00 (CET)Dunkerque, France (7010): visibility: 11.01.2018 02:00:00 - 17.01.2018 02:00:00 (CET)Dunkerque, France (7010): Quantités de précipitations: 11.01.2018 02:00:00 - 17.01.2018 02:00:00 (CET)
Date & Time tt [°C] td [°C] ff [km/h] ff [knt] fx [km/h] fx [knt] dd ppp [hPa] vv [km] rr [mm]
17.01.2018 02:00:00 - - - - - - - - - -
17.01.2018 01:00:00 5,8 0,5 41 22 67 36 W 995,2 - 0,0
17.01.2018 00:00:00 6,0 0,3 44 24 72 39 W 994,5 - 0,0
16.01.2018 23:00:00 6,5 0,8 39 21 67 36 W 993,8 - 0,0
16.01.2018 22:00:00 6,8 2,1 34 19 65 35 W 994,1 - 0,0
16.01.2018 21:00:00 7,2 1,1 35 19 57 31 W 994,4 - 0,0
16.01.2018 20:00:00 7,2 1,5 22 12 65 35 WSW 994,8 - 0,0
16.01.2018 19:00:00 7,1 0,1 37 20 67 36 W 995,0 - 0,0
16.01.2018 18:00:00 7,3 -0,2 29 16 61 33 W 995,8 - 0,0
16.01.2018 17:00:00 7,6 0,8 35 19 64 35 W 996,0 - 0,0
16.01.2018 16:00:00 7,8 0,3 38 20 63 34 W 995,9 - 0,0
16.01.2018 15:00:00 8,3 1,4 41 22 62 34 W 995,9 - 0,0
16.01.2018 14:00:00 7,6 1,9 40 22 69 37 W 995,9 - 0,0
16.01.2018 13:00:00 7,8 1,8 37 20 68 37 W 996,1 15 0,0
16.01.2018 12:00:00 7,9 1,3 39 21 64 34 W 996,5 - 0,0
16.01.2018 11:00:00 7,2 1,7 38 20 66 36 W 996,3 - 0,0
16.01.2018 10:00:00 7,3 2,4 40 22 64 34 W 995,7 15 0,0
16.01.2018 09:00:00 7,5 2,4 42 23 68 37 W 994,7 - 0,0
16.01.2018 08:00:00 7,9 3,0 43 23 68 37 W 994,0 - 0,0
16.01.2018 07:00:00 8,1 3,7 35 19 63 34 W 992,7 15 0,0
16.01.2018 06:00:00 8,3 4,3 35 19 61 33 W 992,9 - 0,0
16.01.2018 05:00:00 8,4 4,8 36 19 63 34 W 993,0 - 0,0
16.01.2018 04:00:00 8,6 4,2 36 19 65 35 W 993,5 - 0,0
16.01.2018 03:00:00 8,4 3,6 35 19 59 32 W 994,1 - 0,0
16.01.2018 02:00:00 8,7 4,1 24 13 59 32 WSW 994,4 - 0,0
16.01.2018 01:00:00 8,8 4,2 27 15 59 32 WSW 994,8 15 0,0
16.01.2018 00:00:00 8,2 4,4 32 18 67 36 W 995,9 - 0,0
15.01.2018 23:00:00 8,0 4,0 24 13 56 31 WSW 995,5 - 0,0
15.01.2018 22:00:00 8,4 4,8 29 16 48 26 W 994,9 - 0,0
15.01.2018 21:00:00 8,0 3,6 29 15 61 33 W 994,7 - 3,5
15.01.2018 20:00:00 7,5 3,9 35 19 62 33 W 994,3 - 1,8
15.01.2018 19:00:00 10,0 7,2 34 18 65 35 W 992,7 15 0,0
15.01.2018 18:00:00 10,4 8,0 27 15 59 32 WSW 992,2 - 0,4
15.01.2018 17:00:00 10,2 9,0 29 16 59 32 SW 991,9 - 1,5
15.01.2018 16:00:00 8,0 6,6 24 13 57 31 SSW 992,7 8 1,0
15.01.2018 15:00:00 7,2 5,8 32 17 53 29 S 994,2 - 2,4
15.01.2018 14:00:00 6,9 5,4 31 17 54 29 S 996,3 - 1,0
15.01.2018 13:00:00 6,5 5,0 34 18 54 29 S 999,0 8 0,2
15.01.2018 12:00:00 6,6 3,9 34 18 68 37 SSW 1001,3 - 0,0
15.01.2018 11:00:00 6,7 3,7 35 19 57 31 S 1002,9 - 0,2
15.01.2018 10:00:00 6,4 3,4 29 16 46 25 SSW 1005,1 - 0,0
15.01.2018 09:00:00 5,4 3,2 27 15 47 25 S 1006,2 - 0,2
15.01.2018 08:00:00 5,4 3,4 31 17 50 27 S 1007,5 - 0,0
15.01.2018 07:00:00 4,3 3,0 27 14 40 22 S 1008,9 12 0,0
15.01.2018 06:00:00 3,7 2,8 25 14 38 21 S 1010,4 - 0,0
15.01.2018 05:00:00 3,2 2,3 22 12 36 20 S 1012,0 - 0,0
15.01.2018 04:00:00 4,2 2,5 23 12 33 18 SSW 1012,7 12 0,0
15.01.2018 03:00:00 3,9 1,8 16 9 24 13 S 1013,4 - 0,0
15.01.2018 02:00:00 4,0 1,9 13 7 22 12 S 1014,5 - 0,0
15.01.2018 01:00:00 4,1 1,6 14 7 21 11 SSW 1015,5 - 0,0
15.01.2018 00:00:00 3,7 1,6 10 5 15 8 S 1016,1 - 0,0
14.01.2018 23:00:00 3,1 1,3 11 6 21 11 S 1017,0 - 0,0
14.01.2018 22:00:00 2,6 0,8 16 8 24 13 SW 1017,6 10 0,0
14.01.2018 21:00:00 2,9 0,9 11 6 16 8 SSW 1017,5 - 0,0
14.01.2018 20:00:00 4,0 1,2 6 3 19 10 SSW 1017,9 - 0,0
14.01.2018 19:00:00 2,8 0,8 13 7 18 10 S 1017,3 - 0,0
14.01.2018 18:00:00 3,1 0,8 8 4 13 7 S 1017,9 - 0,0
14.01.2018 17:00:00 3,9 0,8 8 5 14 8 S 1017,9 - 0,0
14.01.2018 16:00:00 5,0 0,9 6 4 12 6 SSE 1017,9 10 0,0
14.01.2018 15:00:00 5,4 0,8 7 4 12 7 S 1017,8 - 0,0
14.01.2018 14:00:00 5,2 0,6 6 4 16 9 SE 1017,9 - 0,0
14.01.2018 13:00:00 4,6 0,5 11 6 17 9 SE 1018,3 4,0 0,0
14.01.2018 12:00:00 3,3 0,5 14 7 23 12 SE 1018,8 - 0,0
14.01.2018 11:00:00 2,4 0,1 18 10 25 14 ESE 1018,8 - 0,0
14.01.2018 10:00:00 2,1 0,0 15 8 28 15 ESE 1018,7 4,0 0,0
14.01.2018 09:00:00 2,4 0,1 16 9 27 14 ESE 1018,6 - 0,0
14.01.2018 08:00:00 2,7 0,4 18 10 26 14 E 1018,4 - 0,0
14.01.2018 07:00:00 3,0 0,4 20 11 26 14 E 1018,4 18 0,0
14.01.2018 06:00:00 3,3 0,5 18 10 29 16 E 1018,4 - 0,0
14.01.2018 05:00:00 3,9 0,6 21 11 29 16 E 1018,6 - 0,0
14.01.2018 04:00:00 4,3 0,8 19 10 29 16 E 1018,8 - 0,0
14.01.2018 03:00:00 4,0 0,9 18 10 24 13 E 1019,0 - 0,0
14.01.2018 02:00:00 4,3 0,8 17 9 27 15 E 1018,9 - 0,0
14.01.2018 01:00:00 4,5 1,0 19 10 24 13 E 1019,5 - 0,0
14.01.2018 00:00:00 4,3 0,4 13 7 16 9 E 1019,9 - 0,0
13.01.2018 23:00:00 4,7 0,3 12 7 24 13 ESE 1020,3 - 0,0
13.01.2018 22:00:00 4,7 0,5 13 7 27 14 ESE 1020,6 18 0,0
13.01.2018 21:00:00 4,6 0,2 16 8 29 16 ESE 1020,8 - 0,0
13.01.2018 20:00:00 4,6 0,7 18 10 29 16 SE 1020,9 - 0,0
13.01.2018 19:00:00 4,7 1,0 17 9 31 17 SE 1020,7 10 0,0
13.01.2018 18:00:00 4,6 1,1 20 11 31 17 SE 1020,6 - 0,0
13.01.2018 17:00:00 4,4 1,1 18 10 34 18 SE 1020,7 - 0,0
13.01.2018 16:00:00 4,7 1,9 17 9 31 17 SSE 1020,9 - 0,0
13.01.2018 15:00:00 5,0 2,5 19 10 29 16 SE 1020,9 - 0,0
13.01.2018 14:00:00 4,9 2,9 18 10 32 17 SE 1021,6 - 0,0
13.01.2018 13:00:00 4,3 3,4 19 10 29 16 SSE 1022,3 0,3 0,0
13.01.2018 12:00:00 4,0 3,3 18 10 31 17 SE 1022,8 - 0,0
13.01.2018 11:00:00 3,5 2,8 23 12 31 17 SE 1023,1 - 0,0
13.01.2018 10:00:00 3,3 2,6 21 11 32 18 SE 1023,2 0,3 0,0
13.01.2018 09:00:00 3,6 2,9 18 10 29 16 SSE 1023,0 - 0,0
13.01.2018 08:00:00 3,5 2,8 20 11 27 15 SE 1022,8 - 0,0
13.01.2018 07:00:00 2,6 1,9 10 6 19 10 SE 1023,0 - 0,0
13.01.2018 06:00:00 3,0 2,1 11 6 16 9 SE 1023,5 - 0,0
13.01.2018 05:00:00 3,6 2,6 5 3 10 5 SSE 1023,9 - 0,2
13.01.2018 04:00:00 4,5 3,3 8 4 11 6 ESE 1024,0 - 0,0
13.01.2018 03:00:00 4,6 3,6 6 4 10 5 S 1024,6 - 0,0
13.01.2018 02:00:00 4,8 3,8 5 3 13 7 S 1024,8 - 0,0
13.01.2018 01:00:00 5,1 4,1 10 6 16 8 SE 1025,1 - 0,0
13.01.2018 00:00:00 5,2 4,3 11 6 16 9 SSE 1025,5 - 0,0
12.01.2018 23:00:00 4,7 3,8 7 4 13 7 S 1025,8 - 0,0
12.01.2018 22:00:00 5,5 4,6 10 5 18 10 SSE 1026,1 3,0 0,0
12.01.2018 21:00:00 5,5 4,6 9 5 14 8 ESE 1026,0 - 0,0
12.01.2018 20:00:00 5,7 4,8 9 5 12 7 E 1026,0 - 0,0
12.01.2018 19:00:00 5,9 4,9 10 5 17 9 E 1026,0 - 0,0
12.01.2018 18:00:00 6,6 5,2 13 7 15 8 E 1026,3 - 0,0
12.01.2018 17:00:00 6,9 5,0 6 3 10 5 ENE 1026,4 - 0,0
12.01.2018 16:00:00 7,3 4,8 2 1 4 2 NE 1026,4 - 0,0
12.01.2018 15:00:00 7,5 4,8 2 1 5 3 E 1026,4 - 0,0
12.01.2018 14:00:00 7,6 4,7 4 2 6 3 N 1026,6 - 0,0
12.01.2018 13:00:00 7,6 4,9 4 2 5 3 E 1026,8 - 0,0
12.01.2018 12:00:00 7,3 4,6 5 3 9 5 ENE 1027,2 - 0,0
12.01.2018 11:00:00 7,1 4,9 4 2 7 4 E 1027,5 - 0,0
12.01.2018 10:00:00 6,3 4,3 3 2 5 3 NNE 1027,1 - 0,0
12.01.2018 09:00:00 6,0 3,8 0 0 5 3 N 1027,1 - 0,0
12.01.2018 08:00:00 6,1 4,1 5 3 9 5 ENE 1027,2 - 0,0
12.01.2018 07:00:00 6,0 4,2 5 3 16 9 NE 1026,8 - 0,0
12.01.2018 06:00:00 5,9 4,7 8 4 21 11 ENE 1026,4 - 0,0
12.01.2018 05:00:00 6,0 5,1 14 8 21 12 ENE 1025,8 - 0,0
12.01.2018 04:00:00 5,8 5,1 11 6 18 10 NNE 1026,0 - 0,0
12.01.2018 03:00:00 5,6 4,9 13 7 18 10 NE 1025,8 - 0,0
12.01.2018 02:00:00 5,5 4,8 11 6 19 10 ENE 1025,6 - 0,0
12.01.2018 01:00:00 5,5 4,8 13 7 20 11 ENE 1025,4 - 0,0
12.01.2018 00:00:00 5,2 4,6 16 9 24 13 NE 1025,1 - 0,0
11.01.2018 23:00:00 5,0 4,3 12 7 18 10 NE 1024,7 - 0,0
11.01.2018 22:00:00 4,9 4,2 11 6 17 9 NNE 1024,2 - 0,0
11.01.2018 21:00:00 4,6 4,0 9 5 14 7 NNE 1024,1 - 0,0
11.01.2018 20:00:00 4,1 3,4 9 5 14 8 NNE 1023,2 - 0,2
11.01.2018 19:00:00 3,7 3,0 7 4 12 7 NE 1022,1 - 0,0
11.01.2018 18:00:00 4,4 3,7 9 5 12 7 E 1021,1 - 0,0
11.01.2018 17:00:00 4,2 3,5 9 5 14 8 ENE 1020,5 - 0,0
11.01.2018 16:00:00 4,3 3,6 8 4 11 6 NE 1019,9 - 0,0
11.01.2018 15:00:00 4,1 3,4 0 0 12 7 N 1019,2 - 0,0
11.01.2018 14:00:00 3,8 3,1 7 4 9 5 ESE 1018,4 - 0,0
11.01.2018 13:00:00 3,1 2,4 5 3 11 6 S 1017,9 - 0,0
11.01.2018 12:00:00 2,0 1,3 9 5 13 7 SSE 1017,5 - 0,0
11.01.2018 11:00:00 1,5 0,8 10 6 13 7 SSE 1016,9 - 0,0
11.01.2018 10:00:00 1,5 0,8 8 4 11 6 S 1016,0 8 0,0
11.01.2018 09:00:00 1,2 0,5 8 4 13 7 S 1014,9 - 0,0
11.01.2018 08:00:00 0,7 0,0 9 5 15 8 S 1014,0 - 0,0
11.01.2018 07:00:00 0,9 0,2 8 4 10 5 S 1012,9 8 0,0
11.01.2018 06:00:00 2,0 1,1 7 4 11 6 S 1012,0 - 0,0
11.01.2018 05:00:00 2,7 1,8 7 4 9 5 S 1011,4 - 0,2
11.01.2018 04:00:00 3,9 2,9 5 3 9 5 S 1011,0 8 0,0
11.01.2018 03:00:00 4,4 3,4 4 2 12 7 S 1010,5 - 0,0
11.01.2018 02:00:00 4,5 3,3 9 5 14 8 S 1009,8 - 0,0

tt = Température de l'air
td = dewpoint
ff = Vitesse du vent
fx = gusts
dd = Direction du vent
ppp = reduced air pressure
vv = visibility
rr = Quantités de précipitations

stations d'obs. à proximité